Flag for India Weather past 2 weeks in Sultanpur, Uttar Pradesh, India

70 °F

Partly cloudy.

Feels Like: 70 °F
Forecast: 70 / 83 °F
Wind: 6 mph from East

Location: Lucknow / Amausi

Current Time: Nov 29, 2015 at 2:50:04 AM

Latest Report: Nov 29, 2015 at 2:00 AM

Visibility: 2 mi

Pressure: 30.04 "Hg

Humidity: 73%

Dew point: 61 °F

Location of SultanpurLocation

Historic Weather in Sultanpur — Graph


Sultanpur temperature yesterday

Maximum temperature yesterday: 82 °F (at 2:00 PM)
Minimum temperature yesterday: 64 °F (at 6:00 AM)
Average temperature yesterday: 72 °F

Past Weeks' High & Low Weather Summary

High90 °F (Nov 15, 1:30 PM)94% (Nov 27, 4:00 AM)30.09 "Hg (Nov 27, 4:00 AM)
Low54 °F (Nov 26, 7:00 AM)23% (Nov 25, 2:30 PM)29.77 "Hg (Nov 27, 3:00 PM)
Average73 °F57%29.92 "Hg
* Reported Nov 14 1:00 AM — Nov 29 1:00 AM, Sultanpur, Weather by CustomWeather, © 2015

Note: Actual official high and low records may vary slightly from our data, if they occured in-between our weather recording intervals... More about our weather records


Sultanpur weather history for previous 24 hours

Time TempWeatherWind HumidityBarometerVisibility
1:00 AM
Sun, Nov 29
72 °FPartly cloudy.5 mph69%30.04 "Hg1 mi
12:00 AM72 °FPartly cloudy.6 mph69%30.04 "Hg1 mi
11:00 PM
Sat, Nov 28
72 °FPartly cloudy.5 mph69%30.04 "Hg1 mi
10:00 PM72 °FPartly cloudy.No wind69%30.04 "Hg1 mi
9:00 PM72 °FPartly cloudy.No wind69%30.01 "Hg1 mi
8:30 PM73 °FPartly cloudy.No wind65%30.01 "Hg1 mi
8:00 PM73 °FPartly cloudy.2 mph65%29.98 "Hg1 mi
7:30 PM75 °FPartly cloudy.2 mph61%29.98 "Hg1 mi
7:00 PM75 °FPartly cloudy.2 mph61%29.98 "Hg1 mi
6:30 PM75 °FPartly cloudy.2 mph61%29.95 "Hg1 mi
6:00 PM77 °FPartly cloudy.2 mph61%29.95 "Hg1 mi
5:00 PM77 °FBroken clouds.5 mph51%29.95 "Hg1 mi
4:30 PM79 °FBroken clouds.7 mph48%29.95 "Hg2 mi
4:00 PM81 °FBroken clouds.7 mph45%29.95 "Hg2 mi
3:00 PM82 °FBroken clouds.9 mph42%29.95 "Hg2 mi
2:00 PM82 °FBroken clouds.9 mph42%29.95 "Hg2 mi
1:00 PM81 °FBroken clouds.14 mph45%29.95 "Hg2 mi
12:00 PM79 °FBroken clouds.14 mph48%29.98 "Hg2 mi
11:30 AM79 °FBroken clouds.14 mph48%29.98 "Hg2 mi
11:00 AM77 °FBroken clouds.9 mph54%29.98 "Hg2 mi
10:00 AM72 °FBroken clouds.14 mph69%30.01 "Hg1 mi
9:30 AM72 °FBroken clouds.14 mph69%30.01 "Hg1 mi
9:00 AM70 °FFog.14 mph73%29.98 "Hg1 mi
8:30 AM68 °FFog.14 mph73%29.98 "Hg1 mi
8:00 AM66 °FFog.9 mph78%29.98 "Hg1 mi
7:30 AM66 °FFog.6 mph78%29.95 "Hg1 mi
7:00 AM66 °FFog.6 mph78%29.95 "Hg1 mi
6:30 AM64 °FFog.6 mph83%29.95 "Hg1 mi
6:00 AM64 °FPassing clouds.6 mph83%29.98 "Hg1 mi
5:30 AM66 °FPartly cloudy.3 mph78%29.89 "Hg1 mi
4:00 AM66 °FPartly cloudy.3 mph78%29.89 "Hg1 mi
3:00 AM66 °FPartly cloudy.3 mph78%29.89 "Hg1 mi
2:00 AM66 °FPassing clouds.3 mph78%29.86 "Hg1 mi
Weather by CustomWeather, © 2015

See weather overviewHow to use our weather pages